,,,PA_Meas_PMT16A,,PR_Meas_QMR101_102,,RH_Meas_QMH101,,SR_Meas_QMS101,,TA_Meas_QMH101,,GenWind,,GenWind,
date,time,status,PA,status,PR,status,RH,status,SR,status,TA,status,DirAvg,status,SpdAvg,
2010-06-15, 00:00:04,VALID,1001.45,VALID,0,VALID,92.7151,VALID,0,VALID,23.6036,VALID,8,VALID,1.07969,
2010-06-15, 00:01:04,VALID,1001.42,VALID,0,VALID,92.822,VALID,0,VALID,23.6036,VALID,6,VALID,0.921094,
2010-06-15, 00:02:04,VALID,1001.43,VALID,0,VALID,92.8525,VALID,0,VALID,23.5841,VALID,12,VALID,0.924609,
2010-06-15, 00:03:04,VALID,1001.44,VALID,0,VALID,92.8906,VALID,0,VALID,23.5841,VALID,26,VALID,1.03867,
2010-06-15, 00:04:04,VALID,1001.44,VALID,0,VALID,92.9364,VALID,0,VALID,23.5646,VALID,34,VALID,0.874609,
2010-06-15, 00:05:04,VALID,1001.45,VALID,0,VALID,92.9593,VALID,0,VALID,23.5433,VALID,34,VALID,0.650781,
2010-06-15, 00:06:04,VALID,1001.43,VALID,0,VALID,93.0051,VALID,0,VALID,23.5451,VALID,33,VALID,0.683594,
2010-06-15, 00:07:04,VALID,1001.44,VALID,0,VALID,93.0585,VALID,0,VALID,23.5043,VALID,16,VALID,0.840234,
2010-06-15, 00:08:04,VALID,1001.44,VALID,0,VALID,93.0585,VALID,0,VALID,23.5256,VALID,9,VALID,0.733594,
2010-06-15, 00:09:04,VALID,1001.41,VALID,0,VALID,93.1119,VALID,0,VALID,23.5256,VALID,2,VALID,0.641016,
2010-06-15, 00:10:04,VALID,1001.42,VALID,0,VALID,93.1424,VALID,0,VALID,23.5256,VALID,2,VALID,0.646875,
2010-06-15, 00:11:04,VALID,1001.46,VALID,0,VALID,93.1424,VALID,0,VALID,23.5256,VALID,9,VALID,0.762109,
2010-06-15, 00:12:04,VALID,1001.51,VALID,0,VALID,93.1195,VALID,0,VALID,23.5256,VALID,23,VALID,1.02578,
2010-06-15, 00:13:04,VALID,1001.54,VALID,0,VALID,93.0814,VALID,0,VALID,23.4866,VALID,35,VALID,1.12461,
2010-06-15, 00:14:04,VALID,1001.6,VALID,0,VALID,92.9898,VALID,0,VALID,23.4653,VALID,42,VALID,1.06562,
2010-06-15, 00:15:04,VALID,1001.63,VALID,0,VALID,92.9593,VALID,0,VALID,23.4671,VALID,42,VALID,1.04414,
2010-06-15, 00:16:04,VALID,1001.62,VALID,0,VALID,92.8983,VALID,0,VALID,23.4671,VALID,39,VALID,0.832031,
2010-06-15, 00:17:04,VALID,1001.63,VALID,0,VALID,92.9135,VALID,0,VALID,23.4671,VALID,33,VALID,0.960938,
2010-06-15, 00:18:04,VALID,1001.63,VALID,0,VALID,92.9211,VALID,0,VALID,23.4475,VALID,31,VALID,0.819531,
2010-06-15, 00:19:04,VALID,1001.63,VALID,0,VALID,92.944,VALID,0,VALID,23.4475,VALID,30,VALID,0.791016,
2010-06-15, 00:20:04,VALID,1001.67,VALID,0,VALID,92.9745,VALID,0,VALID,23.4475,VALID,30,VALID,0.821094,
2010-06-15, 00:21:04,VALID,1001.68,VALID,0,VALID,93.0508,VALID,0,VALID,23.4263,VALID,30,VALID,0.896875,
2010-06-15, 00:22:04,VALID,1001.69,VALID,0,VALID,93.1119,VALID,0,VALID,23.4475,VALID,30,VALID,0.741016,
2010-06-15, 00:23:04,VALID,1001.72,VALID,0,VALID,93.1729,VALID,0,VALID,23.4671,VALID,30,VALID,0.768359,
2010-06-15, 00:24:04,VALID,1001.71,VALID,0,VALID,93.234,VALID,0,VALID,23.4671,VALID,30,VALID,0.684375,
2010-06-15, 00:25:04,VALID,1001.68,VALID,0,VALID,93.2797,VALID,0,VALID,23.4458,VALID,30,VALID,0.448438,
2010-06-15, 00:26:04,VALID,1001.69,VALID,0,VALID,93.2797,VALID,0,VALID,23.4866,VALID,30,VALID,0.333203,
2010-06-15, 00:27:04,VALID,1001.67,VALID,0,VALID,93.2645,VALID,0,VALID,23.4671,VALID,30,VALID,0.107813,
2010-06-15, 00:28:04,VALID,1001.66,VALID,0,VALID,93.2263,VALID,0,VALID,23.4475,VALID,30,VALID,0,
2010-06-15, 00:29:04,VALID,1001.67,VALID,0,VALID,93.2034,VALID,0,VALID,23.4493,VALID,30,VALID,0,
2010-06-15, 00:30:04,VALID,1001.69,VALID,0,VALID,93.1653,VALID,0,VALID,23.428,VALID,30,VALID,0,
2010-06-15, 00:31:04,VALID,1001.7,VALID,0,VALID,93.15,VALID,0,VALID,23.3677,VALID,30,VALID,0,
2010-06-15, 00:32:04,VALID,1001.7,VALID,0,VALID,93.1119,VALID,0,VALID,23.3695,VALID,30,VALID,0,
2010-06-15, 00:33:04,VALID,1001.7,VALID,0,VALID,93.1348,VALID,0,VALID,23.389,VALID,30,VALID,0,
2010-06-15, 00:34:04,VALID,1001.73,VALID,0,VALID,93.1729,VALID,0,VALID,23.3695,VALID,30,VALID,0.330469,
2010-06-15, 00:35:04,VALID,1001.73,VALID,0,VALID,93.234,VALID,0,VALID,23.3695,VALID,30,VALID,0.431641,
2010-06-15, 00:36:04,VALID,1001.75,VALID,0,VALID,93.295,VALID,0,VALID,23.389,VALID,30,VALID,0.438672,
2010-06-15, 00:37:04,VALID,1001.77,VALID,0,VALID,93.3408,VALID,0,VALID,23.389,VALID,30,VALID,0.51875,
2010-06-15, 00:38:04,VALID,1001.75,VALID,0,VALID,93.3789,VALID,0,VALID,23.4085,VALID,30,VALID,0.449609,
2010-06-15, 00:39:04,VALID,1001.76,VALID,0,VALID,93.4018,VALID,0,VALID,23.4085,VALID,30,VALID,0.393359,
2010-06-15, 00:40:04,VALID,1001.79,VALID,0,VALID,93.3713,VALID,0,VALID,23.4085,VALID,30,VALID,0.224219,
2010-06-15, 00:41:04,VALID,1001.81,VALID,0,VALID,93.3637,VALID,0,VALID,23.3695,VALID,30,VALID,0.300391,
2010-06-15, 00:42:04,VALID,1001.84,VALID,0,VALID,93.3637,VALID,0,VALID,23.389,VALID,30,VALID,0.344922,
2010-06-15, 00:43:04,VALID,1001.83,VALID,0,VALID,93.3713,VALID,0,VALID,23.4085,VALID,30,VALID,0.429297,
2010-06-15, 00:44:04,VALID,1001.85,VALID,0,VALID,93.3713,VALID,0,VALID,23.389,VALID,30,VALID,0.253125,
2010-06-15, 00:45:04,VALID,1001.88,VALID,0,VALID,93.3255,VALID,0,VALID,23.4085,VALID,30,VALID,0.243359,
2010-06-15, 00:46:04,VALID,1001.88,VALID,0,VALID,93.3103,VALID,0,VALID,23.389,VALID,30,VALID,0.244531,
2010-06-15, 00:47:04,VALID,1001.85,VALID,0,VALID,93.2797,VALID,0,VALID,23.389,VALID,30,VALID,0.259766,
2010-06-15, 00:48:04,VALID,1001.81,VALID,0,VALID,93.2645,VALID,0,VALID,23.3695,VALID,30,VALID,0.260547,
2010-06-15, 00:49:04,VALID,1001.78,VALID,0,VALID,93.2645,VALID,0,VALID,23.389,VALID,30,VALID,0.270703,
2010-06-15, 00:50:04,VALID,1001.77,VALID,0,VALID,93.2645,VALID,0,VALID,23.3695,VALID,30,VALID,0.220313,
2010-06-15, 00:51:04,VALID,1001.74,VALID,0,VALID,93.2492,VALID,0,VALID,23.35,VALID,30,VALID,0.140234,
2010-06-15, 00:52:04,VALID,1001.73,VALID,0,VALID,93.2568,VALID,0,VALID,23.3908,VALID,30,VALID,0.151953,
2010-06-15, 00:53:04,VALID,1001.75,VALID,0,VALID,93.295,VALID,0,VALID,23.4085,VALID,30,VALID,0.163281,
2010-06-15, 00:54:04,VALID,1001.74,VALID,0,VALID,93.3179,VALID,0,VALID,23.428,VALID,30,VALID,0.190625,
2010-06-15, 00:55:04,VALID,1001.74,VALID,0,VALID,93.3484,VALID,0,VALID,23.4671,VALID,30,VALID,0.207031,
2010-06-15, 00:56:04,VALID,1001.74,VALID,0,VALID,93.3942,VALID,0,VALID,23.5079,VALID,30,VALID,0.303516,
2010-06-15, 00:57:04,VALID,1001.72,VALID,0,VALID,93.4094,VALID,0,VALID,23.5061,VALID,30,VALID,0.346094,
2010-06-15, 00:58:04,VALID,1001.7,VALID,0,VALID,93.4094,VALID,0,VALID,23.5664,VALID,30,VALID,0.361328,
2010-06-15, 00:59:04,VALID,1001.69,VALID,0,VALID,93.4018,VALID,0,VALID,23.5841,VALID,43,VALID,0.515625,
2010-06-15, 01:00:04,VALID,1001.65,VALID,0,VALID,93.356,VALID,0,VALID,23.6036,VALID,93,VALID,0.301172,
2010-06-15, 01:01:04,VALID,1001.59,VALID,0,VALID,93.3103,VALID,0,VALID,23.6232,VALID,93,VALID,0.430859,
2010-06-15, 01:02:04,VALID,1001.55,VALID,0,VALID,93.1958,VALID,0,VALID,23.6427,VALID,93,VALID,0.394922,
2010-06-15, 01:03:04,VALID,1001.5,VALID,0,VALID,93.1119,VALID,0,VALID,23.6622,VALID,93,VALID,0.467578,
2010-06-15, 01:04:04,VALID,1001.43,VALID,0,VALID,92.9974,VALID,0,VALID,23.7012,VALID,93,VALID,0.425781,
2010-06-15, 01:05:04,VALID,1001.39,VALID,0,VALID,92.883,VALID,0,VALID,23.7012,VALID,93,VALID,0.426562,
2010-06-15, 01:06:04,VALID,1001.36,VALID,0,VALID,92.7228,VALID,0,VALID,23.7207,VALID,93,VALID,0.375,
2010-06-15, 01:07:04,VALID,1001.38,VALID,0,VALID,92.5473,VALID,0,VALID,23.7207,VALID,93,VALID,0.474609,
2010-06-15, 01:08:04,VALID,1001.36,VALID,0,VALID,92.3489,VALID,0,VALID,23.7225,VALID,93,VALID,0.5625,
2010-06-15, 01:09:04,VALID,1001.35,VALID,0,VALID,92.2497,VALID,0,VALID,23.6817,VALID,93,VALID,0.670703,
2010-06-15, 01:10:04,VALID,1001.32,VALID,0,VALID,92.2268,VALID,0,VALID,23.6817,VALID,93,VALID,0.886328,
2010-06-15, 01:11:04,VALID,1001.32,VALID,0,VALID,92.2268,VALID,0,VALID,23.6835,VALID,93,VALID,0.939844,
2010-06-15, 01:12:04,VALID,1001.29,VALID,0,VALID,92.0514,VALID,0,VALID,23.6232,VALID,90,VALID,1.00703,
2010-06-15, 01:13:04,VALID,1001.29,VALID,0,VALID,91.9598,VALID,0,VALID,23.6054,VALID,86,VALID,0.912109,
2010-06-15, 01:14:04,VALID,1001.26,VALID,0,VALID,91.9064,VALID,0,VALID,23.5451,VALID,74,VALID,0.841406,
2010-06-15, 01:15:04,VALID,1001.27,VALID,0,VALID,92.0666,VALID,0,VALID,23.5061,VALID,66,VALID,0.965625,
2010-06-15, 01:16:04,VALID,1001.27,VALID,0,VALID,92.204,VALID,0,VALID,23.4671,VALID,68,VALID,0.930469,
2010-06-15, 01:17:04,VALID,1001.24,VALID,0,VALID,92.3337,VALID,0,VALID,23.4475,VALID,66,VALID,0.787891,
2010-06-15, 01:18:04,VALID,1001.26,VALID,0,VALID,92.5015,VALID,0,VALID,23.428,VALID,58,VALID,1.06289,
2010-06-15, 01:19:04,VALID,1001.23,VALID,0,VALID,92.5473,VALID,0,VALID,23.4298,VALID,58,VALID,0.409766,
2010-06-15, 01:20:04,VALID,1001.21,VALID,0,VALID,92.5702,VALID,0,VALID,23.389,VALID,58,VALID,0.405078,
2010-06-15, 01:21:04,VALID,1001.21,VALID,0,VALID,92.5397,VALID,0,VALID,23.3695,VALID,58,VALID,0.372266,
2010-06-15, 01:22:04,VALID,1001.2,VALID,0,VALID,92.6312,VALID,0,VALID,23.3305,VALID,43,VALID,0.449219,
2010-06-15, 01:23:04,VALID,1001.15,VALID,0,VALID,92.7533,VALID,0,VALID,23.35,VALID,343,VALID,0.50625,
2010-06-15, 01:24:04,VALID,1001.07,VALID,0,VALID,92.8296,VALID,0,VALID,23.35,VALID,346,VALID,0.529688,
2010-06-15, 01:25:04,VALID,1001.08,VALID,0,VALID,92.8983,VALID,0,VALID,23.3695,VALID,336,VALID,0.634766,
2010-06-15, 01:26:04,VALID,1001.04,VALID,0,VALID,93.0051,VALID,0,VALID,23.3908,VALID,336,VALID,0.676562,
2010-06-15, 01:27:04,VALID,1001.02,VALID,0,VALID,93.1043,VALID,0,VALID,23.4085,VALID,324,VALID,0.905078,
2010-06-15, 01:28:04,VALID,1000.98,VALID,0,VALID,93.15,VALID,0,VALID,23.4085,VALID,315,VALID,0.649609,
2010-06-15, 01:29:04,VALID,1000.95,VALID,0,VALID,93.1653,VALID,0,VALID,23.4493,VALID,315,VALID,0.441016,
2010-06-15, 01:30:04,VALID,1000.93,VALID,0,VALID,93.2111,VALID,0,VALID,23.428,VALID,315,VALID,0.269922,
2010-06-15, 01:31:04,VALID,1000.87,VALID,0,VALID,93.234,VALID,0,VALID,23.4475,VALID,315,VALID,0.189844,
2010-06-15, 01:32:04,VALID,1000.82,VALID,0,VALID,93.2492,VALID,0,VALID,23.4688,VALID,315,VALID,0.154297,
2010-06-15, 01:33:04,VALID,1000.81,VALID,0,VALID,93.2568,VALID,0,VALID,23.4884,VALID,315,VALID,0.365625,
2010-06-15, 01:34:04,VALID,1000.75,VALID,0,VALID,93.2416,VALID,0,VALID,23.4671,VALID,332,VALID,0.735547,
2010-06-15, 01:35:04,VALID,1000.72,VALID,0,VALID,93.2645,VALID,0,VALID,23.4866,VALID,332,VALID,0.747656,
2010-06-15, 01:36:04,VALID,1000.71,VALID,0,VALID,93.2492,VALID,0,VALID,23.5061,VALID,332,VALID,0.537109,
2010-06-15, 01:37:04,VALID,1000.68,VALID,0,VALID,93.2492,VALID,0,VALID,23.4866,VALID,332,VALID,0.503906,
2010-06-15, 01:38:04,VALID,1000.64,VALID,0,VALID,93.2416,VALID,0,VALID,23.5274,VALID,332,VALID,0.436719,
2010-06-15, 01:39:04,VALID,1000.65,VALID,0,VALID,93.2416,VALID,0,VALID,23.4866,VALID,332,VALID,0.441016,
2010-06-15, 01:40:04,VALID,1000.65,VALID,0,VALID,93.2034,VALID,0,VALID,23.4866,VALID,5,VALID,0.751172,
2010-06-15, 01:41:04,VALID,1000.73,VALID,0,VALID,93.1882,VALID,0,VALID,23.4866,VALID,26,VALID,0.908203,
2010-06-15, 01:42:04,VALID,1000.7,VALID,0,VALID,93.1805,VALID,0,VALID,23.4866,VALID,34,VALID,0.929297,
2010-06-15, 01:43:04,VALID,1000.72,VALID,0,VALID,93.1729,VALID,0,VALID,23.5061,VALID,53,VALID,1.23398,
2010-06-15, 01:44:04,VALID,1000.7,VALID,0,VALID,93.1729,VALID,0,VALID,23.5061,VALID,52,VALID,1.30859,
2010-06-15, 01:45:04,VALID,1000.68,VALID,0,VALID,93.1043,VALID,0,VALID,23.5256,VALID,54,VALID,1.21133,
2010-06-15, 01:46:04,VALID,1000.72,VALID,0,VALID,93.0432,VALID,0,VALID,23.5859,VALID,57,VALID,0.932031,
2010-06-15, 01:47:04,VALID,1000.71,VALID,0,VALID,92.9517,VALID,0,VALID,23.6054,VALID,57,VALID,1.01719,
2010-06-15, 01:48:04,VALID,1000.7,VALID,0,VALID,92.8372,VALID,0,VALID,23.6036,VALID,60,VALID,1.00156,
2010-06-15, 01:49:04,VALID,1000.69,VALID,0,VALID,92.738,VALID,0,VALID,23.6427,VALID,69,VALID,0.815625,
2010-06-15, 01:50:04,VALID,1000.77,VALID,0,VALID,92.6923,VALID,0,VALID,23.6409,VALID,77,VALID,0.841016,
2010-06-15, 01:51:04,VALID,1000.76,VALID,0,VALID,92.6465,VALID,0,VALID,23.6622,VALID,79,VALID,0.909375,
2010-06-15, 01:52:04,VALID,1000.82,VALID,0,VALID,92.6541,VALID,0,VALID,23.6622,VALID,88,VALID,0.939844,
2010-06-15, 01:53:04,VALID,1000.83,VALID,0,VALID,92.6923,VALID,0,VALID,23.6817,VALID,98,VALID,0.676172,
2010-06-15, 01:54:04,VALID,1000.81,VALID,0,VALID,92.6923,VALID,0,VALID,23.6817,VALID,97,VALID,0.465234,
2010-06-15, 01:55:04,VALID,1000.88,VALID,0,VALID,92.7075,VALID,0,VALID,23.6817,VALID,75,VALID,0.662109,
2010-06-15, 01:56:04,VALID,1000.87,VALID,0,VALID,92.7075,VALID,0,VALID,23.6817,VALID,75,VALID,0.655469,
2010-06-15, 01:57:04,VALID,1000.9,VALID,0,VALID,92.677,VALID,0,VALID,23.6817,VALID,75,VALID,0.379297,
2010-06-15, 01:58:04,VALID,1000.93,VALID,0,VALID,92.6541,VALID,0,VALID,23.6817,VALID,75,VALID,0.320703,
2010-06-15, 01:59:04,VALID,1000.93,VALID,0,VALID,92.6541,VALID,0,VALID,23.6799,VALID,75,VALID,0,
2010-06-15, 02:00:04,VALID,1000.95,VALID,0,VALID,92.6541,VALID,0,VALID,23.6604,VALID,75,VALID,0.112109,
2010-06-15, 02:01:04,VALID,1000.91,VALID,0,VALID,92.6541,VALID,0,VALID,23.7012,VALID,75,VALID,0.182812,
2010-06-15, 02:02:04,VALID,1000.9,VALID,0,VALID,92.677,VALID,0,VALID,23.7207,VALID,125,VALID,0.359375,
2010-06-15, 02:03:04,VALID,1000.9,VALID,0,VALID,92.6236,VALID,0,VALID,23.7012,VALID,125,VALID,0.344922,
2010-06-15, 02:04:04,VALID,1000.91,VALID,0,VALID,92.6083,VALID,0,VALID,23.7207,VALID,125,VALID,0.396484,
2010-06-15, 02:05:04,VALID,1000.92,VALID,0,VALID,92.5931,VALID,0,VALID,23.7402,VALID,156,VALID,0.393359,
2010-06-15, 02:06:04,VALID,1000.92,VALID,0,VALID,92.5549,VALID,0,VALID,23.7384,VALID,157,VALID,0.373047,
2010-06-15, 02:07:04,VALID,1000.9,VALID,0,VALID,92.4863,VALID,0,VALID,23.7793,VALID,162,VALID,0.522266,
2010-06-15, 02:08:04,VALID,1000.9,VALID,0,VALID,92.41,VALID,0,VALID,23.797,VALID,195,VALID,0.628906,
2010-06-15, 02:09:04,VALID,1000.89,VALID,0,VALID,92.3108,VALID,0,VALID,23.8573,VALID,204,VALID,0.471094,
2010-06-15, 02:10:04,VALID,1000.89,VALID,0,VALID,92.1429,VALID,0,VALID,23.8963,VALID,197,VALID,0.576563,
2010-06-15, 02:11:04,VALID,1000.91,VALID,0,VALID,91.9827,VALID,0,VALID,23.9354,VALID,197,VALID,0.429297,
2010-06-15, 02:12:04,VALID,1000.9,VALID,0,VALID,91.7767,VALID,0,VALID,23.9549,VALID,197,VALID,0.337109,
2010-06-15, 02:13:04,VALID,1000.91,VALID,0,VALID,91.6241,VALID,0,VALID,23.9549,VALID,197,VALID,0.249609,
2010-06-15, 02:14:04,VALID,1000.92,VALID,0,VALID,91.441,VALID,0,VALID,23.9744,VALID,197,VALID,0.120703,
2010-06-15, 02:15:04,VALID,1000.94,VALID,0,VALID,91.3418,VALID,0,VALID,23.9744,VALID,197,VALID,0,
2010-06-15, 02:16:04,VALID,1000.98,VALID,0,VALID,91.3494,VALID,0,VALID,23.9744,VALID,197,VALID,0.0785156,
2010-06-15, 02:17:04,VALID,1000.98,VALID,0,VALID,91.3189,VALID,0,VALID,23.9726,VALID,192,VALID,0.352734,
2010-06-15, 02:18:04,VALID,1001,VALID,0,VALID,91.3113,VALID,0,VALID,23.9939,VALID,191,VALID,0.533594,
2010-06-15, 02:19:04,VALID,1001,VALID,0,VALID,91.235,VALID,0,VALID,23.9939,VALID,187,VALID,0.400781,
2010-06-15, 02:20:04,VALID,1001.02,VALID,0,VALID,91.2045,VALID,0,VALID,23.9939,VALID,187,VALID,0.394141,
2010-06-15, 02:21:05,VALID,1001.04,VALID,0,VALID,91.2274,VALID,0,VALID,24.0134,VALID,187,VALID,0.586719,
2010-06-15, 02:22:05,VALID,1001.05,VALID,0,VALID,91.3113,VALID,0,VALID,24.0329,VALID,187,VALID,0.327734,
2010-06-15, 02:23:05,VALID,1001.03,VALID,0,VALID,91.3342,VALID,0,VALID,24.0329,VALID,187,VALID,0.0867188,
2010-06-15, 02:24:05,VALID,1001.05,VALID,0,VALID,91.2731,VALID,0,VALID,24.0134,VALID,183,VALID,0.526953,
2010-06-15, 02:25:05,VALID,1001.06,VALID,0,VALID,91.1968,VALID,0,VALID,23.9921,VALID,183,VALID,0.199609,
2010-06-15, 02:26:05,VALID,1001.08,VALID,0,VALID,91.1663,VALID,0,VALID,23.9939,VALID,183,VALID,0.220313,
2010-06-15, 02:27:05,VALID,1001.1,VALID,0,VALID,91.1434,VALID,0,VALID,23.9939,VALID,177,VALID,0.533984,
2010-06-15, 02:28:05,VALID,1001.12,VALID,0,VALID,91.174,VALID,0,VALID,23.9744,VALID,175,VALID,0.429688,
2010-06-15, 02:29:05,VALID,1001.15,VALID,0,VALID,91.2045,VALID,0,VALID,23.9744,VALID,140,VALID,0.773828,
2010-06-15, 02:30:05,VALID,1001.16,VALID,0,VALID,91.3113,VALID,0,VALID,23.9549,VALID,129,VALID,0.766406,
2010-06-15, 02:31:05,VALID,1001.14,VALID,0,VALID,91.3494,VALID,0,VALID,23.9549,VALID,129,VALID,0.712109,
2010-06-15, 02:32:05,VALID,1001.13,VALID,0,VALID,91.3647,VALID,0,VALID,23.9354,VALID,129,VALID,0.673437,
2010-06-15, 02:33:05,VALID,1001.13,VALID,0,VALID,91.3571,VALID,0,VALID,23.9372,VALID,129,VALID,0.393359,
2010-06-15, 02:34:05,VALID,1001.09,VALID,0,VALID,91.3571,VALID,0,VALID,23.914,VALID,129,VALID,0.201562,
2010-06-15, 02:35:05,VALID,1001.08,VALID,0,VALID,91.4028,VALID,0,VALID,23.9336,VALID,129,VALID,0.0929687,
2010-06-15, 02:36:05,VALID,1001.07,VALID,0,VALID,91.38,VALID,0,VALID,23.9336,VALID,129,VALID,0,
2010-06-15, 02:37:05,VALID,1001.05,VALID,0,VALID,91.38,VALID,0,VALID,23.914,VALID,129,VALID,0,
2010-06-15, 02:38:05,VALID,1001.04,VALID,0,VALID,91.3571,VALID,0,VALID,23.9336,VALID,129,VALID,0,
2010-06-15, 02:39:05,VALID,1001,VALID,0,VALID,91.3494,VALID,0.112286,VALID,23.9531,VALID,129,VALID,0,
2010-06-15, 02:40:05,VALID,1000.97,VALID,0,VALID,91.3418,VALID,0,VALID,23.9744,VALID,129,VALID,0.000390625,
2010-06-15, 02:41:05,VALID,1000.97,VALID,0,VALID,91.2655,VALID,0,VALID,23.9336,VALID,129,VALID,0.238672,
2010-06-15, 02:42:05,VALID,1000.92,VALID,0,VALID,91.2045,VALID,0,VALID,23.9531,VALID,149,VALID,0.616016,
2010-06-15, 02:43:05,VALID,1000.87,VALID,0,VALID,91.0824,VALID,0,VALID,23.9531,VALID,166,VALID,0.510547,
2010-06-15, 02:44:05,VALID,1000.87,VALID,0,VALID,90.9146,VALID,0,VALID,23.9921,VALID,187,VALID,0.88125,
2010-06-15, 02:45:05,VALID,1000.82,VALID,0,VALID,90.4644,VALID,0.112286,VALID,23.9921,VALID,187,VALID,0.623828,
2010-06-15, 02:46:05,VALID,1000.83,VALID,0,VALID,90.205,VALID,0,VALID,24.0311,VALID,187,VALID,0.337891,
2010-06-15, 02:47:05,VALID,1000.8,VALID,0,VALID,90.1745,VALID,0,VALID,24.0506,VALID,187,VALID,0.241016,
2010-06-15, 02:48:05,VALID,1000.73,VALID,0,VALID,90.1592,VALID,0,VALID,24.0701,VALID,187,VALID,0,
2010-06-15, 02:49:05,VALID,1000.78,VALID,0,VALID,90.4644,VALID,0,VALID,24.072,VALID,187,VALID,0.230078,
2010-06-15, 02:50:05,VALID,1000.77,VALID,0,VALID,90.556,VALID,0,VALID,24.0525,VALID,187,VALID,0.107031,
2010-06-15, 02:51:05,VALID,1000.76,VALID,0,VALID,90.5407,VALID,0,VALID,24.0525,VALID,187,VALID,0,
2010-06-15, 02:52:05,VALID,1000.79,VALID,0,VALID,90.7467,VALID,0,VALID,24.0525,VALID,187,VALID,0.270312,
2010-06-15, 02:53:05,VALID,1000.8,VALID,0,VALID,90.2737,VALID,0,VALID,24.0134,VALID,144,VALID,0.622656,
2010-06-15, 02:54:05,VALID,1000.8,VALID,0,VALID,89.8846,VALID,0,VALID,24.0329,VALID,138,VALID,1.02305,
2010-06-15, 02:55:05,VALID,1000.81,VALID,0,VALID,89.5412,VALID,0,VALID,24.0525,VALID,142,VALID,0.944141,
2010-06-15, 02:56:05,VALID,1000.8,VALID,0,VALID,89.4573,VALID,0,VALID,24.072,VALID,130,VALID,1.21172,
2010-06-15, 02:57:05,VALID,1000.79,VALID,0,VALID,89.5946,VALID,0,VALID,24.0915,VALID,120,VALID,1.30664,
2010-06-15, 02:58:05,VALID,1000.81,VALID,0,VALID,89.8311,VALID,0,VALID,24.072,VALID,119,VALID,1.08828,
2010-06-15, 02:59:05,VALID,1000.8,VALID,0,VALID,90.0677,VALID,0,VALID,24.0525,VALID,116,VALID,1.03242,
2010-06-15, 03:00:05,VALID,1000.81,VALID,0,VALID,90.1745,VALID,0,VALID,24.0329,VALID,113,VALID,0.979688,
2010-06-15, 03:01:05,VALID,1000.77,VALID,0,VALID,90.2737,VALID,0,VALID,24.0134,VALID,113,VALID,0.859766,
2010-06-15, 03:02:05,VALID,1000.79,VALID,0,VALID,90.3728,VALID,0,VALID,23.9939,VALID,113,VALID,0.677344,
2010-06-15, 03:03:05,VALID,1000.76,VALID,0,VALID,90.4949,VALID,0,VALID,23.9744,VALID,113,VALID,0.409375,
2010-06-15, 03:04:05,VALID,1000.76,VALID,0,VALID,90.6551,VALID,0,VALID,23.9549,VALID,113,VALID,0.35625,
2010-06-15, 03:05:05,VALID,1000.77,VALID,0,VALID,90.823,VALID,0,VALID,23.9354,VALID,113,VALID,0.432813,
2010-06-15, 03:06:05,VALID,1000.76,VALID,0,VALID,91.0061,VALID,0,VALID,23.9354,VALID,108,VALID,0.454297,
2010-06-15, 03:07:05,VALID,1000.76,VALID,0,VALID,91.174,VALID,0,VALID,23.9159,VALID,92,VALID,0.715625,
2010-06-15, 03:08:05,VALID,1000.76,VALID,0,VALID,91.3189,VALID,0,VALID,23.9159,VALID,92,VALID,0.657422,
2010-06-15, 03:09:05,VALID,1000.75,VALID,0,VALID,91.4715,VALID,0,VALID,23.8963,VALID,92,VALID,0.525781,
2010-06-15, 03:10:05,VALID,1000.74,VALID,0,VALID,91.5249,VALID,0,VALID,23.8963,VALID,76,VALID,0.577344,
2010-06-15, 03:11:05,VALID,1000.73,VALID,0,VALID,91.5097,VALID,0,VALID,23.8768,VALID,76,VALID,0.356641,
2010-06-15, 03:12:05,VALID,1000.7,VALID,0,VALID,91.5326,VALID,0,VALID,23.8573,VALID,76,VALID,0.283594,
2010-06-15, 03:13:05,VALID,1000.72,VALID,0,VALID,91.5097,VALID,0,VALID,23.836,VALID,76,VALID,0.372266,
2010-06-15, 03:14:05,VALID,1000.72,VALID,0,VALID,91.4791,VALID,0,VALID,23.8378,VALID,76,VALID,0.404297,
2010-06-15, 03:15:05,VALID,1000.7,VALID,0,VALID,91.3876,VALID,0,VALID,23.8183,VALID,76,VALID,0.328516,
2010-06-15, 03:16:05,VALID,1000.72,VALID,0,VALID,91.3723,VALID,0,VALID,23.8183,VALID,76,VALID,0.277734,
2010-06-15, 03:17:05,VALID,1000.7,VALID,0,VALID,91.3342,VALID,0,VALID,23.8396,VALID,76,VALID,0.444531,
2010-06-15, 03:18:05,VALID,1000.68,VALID,0,VALID,91.3571,VALID,0,VALID,23.8183,VALID,77,VALID,0.296875,
2010-06-15, 03:19:05,VALID,1000.7,VALID,0,VALID,91.3037,VALID,0,VALID,23.8183,VALID,100,VALID,0.400781,
2010-06-15, 03:20:05,VALID,1000.7,VALID,0,VALID,91.3189,VALID,0,VALID,23.8591,VALID,85,VALID,0.667578,
2010-06-15, 03:21:05,VALID,1000.69,VALID,0,VALID,91.3113,VALID,0,VALID,23.8573,VALID,81,VALID,0.685938,
2010-06-15, 03:22:05,VALID,1000.68,VALID,0,VALID,91.2503,VALID,0,VALID,23.8591,VALID,68,VALID,0.579297,
2010-06-15, 03:23:05,VALID,1000.68,VALID,0,VALID,91.2579,VALID,0,VALID,23.8378,VALID,66,VALID,0.339063,
2010-06-15, 03:24:05,VALID,1000.67,VALID,0,VALID,91.2731,VALID,0,VALID,23.8378,VALID,66,VALID,0.170312,
2010-06-15, 03:25:05,VALID,1000.65,VALID,0,VALID,91.2503,VALID,0,VALID,23.8183,VALID,66,VALID,0,
2010-06-15, 03:26:05,VALID,1000.66,VALID,0,VALID,91.3113,VALID,0,VALID,23.8183,VALID,66,VALID,0,
2010-06-15, 03:27:05,VALID,1000.65,VALID,0,VALID,91.3723,VALID,0,VALID,23.7988,VALID,66,VALID,0,
2010-06-15, 03:28:05,VALID,1000.62,VALID,0,VALID,91.4181,VALID,0,VALID,23.7988,VALID,66,VALID,0,
2010-06-15, 03:29:05,VALID,1000.61,VALID,0,VALID,91.502,VALID,0,VALID,23.7579,VALID,66,VALID,0.185156,
2010-06-15, 03:30:05,VALID,1000.63,VALID,0,VALID,91.5554,VALID,0,VALID,23.7793,VALID,66,VALID,0.213672,
2010-06-15, 03:31:05,VALID,1000.62,VALID,0,VALID,91.5936,VALID,0,VALID,23.7793,VALID,66,VALID,0.204297,
2010-06-15, 03:32:05,VALID,1000.6,VALID,0,VALID,91.7004,VALID,0,VALID,23.7793,VALID,66,VALID,0.298828,
2010-06-15, 03:33:05,VALID,1000.58,VALID,0,VALID,91.7233,VALID,0,VALID,23.7793,VALID,66,VALID,0.251172,
2010-06-15, 03:34:05,VALID,1000.52,VALID,0,VALID,91.7004,VALID,0,VALID,23.797,VALID,66,VALID,0.179688,
2010-06-15, 03:35:05,VALID,1000.5,VALID,0,VALID,91.6928,VALID,0,VALID,23.797,VALID,66,VALID,0.312891,
2010-06-15, 03:36:05,VALID,1000.44,VALID,0,VALID,91.6699,VALID,0,VALID,23.797,VALID,66,VALID,0,
2010-06-15, 03:37:05,VALID,1000.4,VALID,0,VALID,91.7004,VALID,0,VALID,23.7775,VALID,66,VALID,0,
2010-06-15, 03:38:05,VALID,1000.35,VALID,0,VALID,91.7385,VALID,0,VALID,23.7775,VALID,66,VALID,0.199219,
2010-06-15, 03:39:05,VALID,1000.35,VALID,0,VALID,91.7996,VALID,0.112286,VALID,23.7775,VALID,342,VALID,0.524219,
2010-06-15, 03:40:05,VALID,1000.33,VALID,0,VALID,91.8606,VALID,0,VALID,23.7579,VALID,342,VALID,0.523828,
2010-06-15, 03:41:05,VALID,1000.35,VALID,0,VALID,91.9217,VALID,0,VALID,23.7366,VALID,342,VALID,0.363672,
2010-06-15, 03:42:05,VALID,1000.34,VALID,0,VALID,91.9751,VALID,0,VALID,23.7597,VALID,342,VALID,0.349219,
2010-06-15, 03:43:05,VALID,1000.38,VALID,0,VALID,92.0361,VALID,0,VALID,23.7384,VALID,342,VALID,0.378906,
2010-06-15, 03:44:05,VALID,1000.41,VALID,0,VALID,92.1048,VALID,0,VALID,23.7189,VALID,342,VALID,0.432031,
2010-06-15, 03:45:05,VALID,1000.41,VALID,0,VALID,92.1582,VALID,0,VALID,23.7189,VALID,342,VALID,0.480469,
2010-06-15, 03:46:05,VALID,1000.44,VALID,0,VALID,92.1582,VALID,0,VALID,23.7189,VALID,342,VALID,0.443359,
2010-06-15, 03:47:05,VALID,1000.45,VALID,0,VALID,92.1582,VALID,0,VALID,23.6994,VALID,90,VALID,0.720703,